DW7110 Weather Reports


Display with metric or nautical units.
time (UTC)temp
F
wind
direction
speed
MPH
gust
MPH
rain 1hr
in
rain 24hr
in
rain mn
in
humidity
%
barometer
mb
20260508051547 47 1 0.0 0.0 0.00 0.37 0.00 88 1016.5
20260508050046 47 1 0.0 0.0 0.00 0.37 0.00 88 1016.5
20260508044600 48 1 0.0 1.0 0.00 0.48 0.00 88 1016.2
20260508043046 48 1 0.0 0.0 0.00 0.48 0.00 88 1016.3
20260508041540 48 1 0.0 0.0 0.00 0.48 0.00 86 1016.3
20260508040037 48 1 0.0 0.0 0.00 0.48 0.00 87 1016.3
20260508034543 49 1 0.0 0.0 0.00 0.50 0.48 87 1016.2
20260508033034 49 1 0.0 0.0 0.00 0.50 0.48 86 1016.2
20260508031533 49 1 0.0 0.0 0.00 0.50 0.48 86 1016.3
20260508030037 50 1 0.0 0.0 0.00 0.50 0.48 85 1016.3
20260508024534 50 1 0.0 0.0 0.00 0.50 0.48 85 1016.1
20260508023030 50 1 0.0 0.0 0.00 0.50 0.48 83 1016.0
20260508021525 51 1 0.0 0.0 0.00 0.50 0.48 83 1015.7
20260508020020 51 1 0.0 0.0 0.00 0.50 0.48 79 1015.5
20260508014518 52 1 0.0 0.0 0.00 0.60 0.48 78 1015.2
20260508013017 52 1 1.0 3.0 0.00 0.60 0.48 78 1015.1
20260508011522 52 1 0.0 5.0 0.00 0.60 0.48 82 1014.8
20260508010014 52 1 3.0 5.0 0.00 0.60 0.48 81 1014.8
20260508004518 52 1 2.0 7.0 0.00 0.69 0.48 86 1014.4
20260508003011 53 1 4.0 8.0 0.00 0.69 0.48 81 1014.3
20260508001509 53 1 4.0 11.0 0.00 0.69 0.48 86 1013.8
20260508000009 53 1 5.0 8.0 0.00 0.69 0.48 85 1013.7
20260507234515 54 1 5.0 8.0 0.00 0.79 0.48 84 1013.6
20260507233002 55 1 4.0 6.0 0.00 0.79 0.48 85 1013.3
20260507231604 56 1 3.0 6.0 0.00 0.79 0.48 80 1013.4
20260507224558 56 1 4.0 7.0 0.00 0.95 0.48 83 1013.4
20260507223059 57 1 5.0 11.0 0.00 0.95 0.48 76 1013.4
20260507221553 57 1 5.0 10.0 0.00 0.95 0.48 78 1013.1
20260507220052 57 1 4.0 7.0 0.00 0.95 0.48 81 1012.9
20260507214552 58 1 4.0 12.0 0.00 1.08 0.48 78 1012.7
20260507213048 58 1 2.0 9.0 0.00 1.08 0.48 77 1012.4
20260507211551 60 1 6.0 14.0 0.00 1.08 0.48 76 1012.1
20260507210049 61 1 4.0 9.0 0.00 1.08 0.48 73 1011.7
20260507204545 62 1 0.0 7.0 0.00 1.27 0.48 73 1011.5
20260507203051 62 1 1.0 9.0 0.00 1.27 0.48 80 1011.5
20260507201544 61 1 1.0 5.0 0.00 1.27 0.48 79 1011.9
20260507200049 61 1 1.0 4.0 0.00 1.27 0.48 80 1011.9
20260507194543 61 1 4.0 8.0 0.00 1.32 0.48 80 1012.0
20260507193047 62 1 3.0 7.0 0.00 1.32 0.48 79 1011.7
20260507191542 62 1 1.0 10.0 0.00 1.32 0.48 81 1011.7
20260507190042 62 1 3.0 10.0 0.00 1.32 0.48 81 1012.0
20260507184540 62 1 0.0 4.0 0.00 1.32 0.48 83 1011.9
20260507183043 61 1 2.0 9.0 0.00 1.32 0.48 82 1011.8
20260507181539 61 1 3.0 7.0 0.00 1.32 0.48 88 1012.1
20260507180042 60 1 4.0 9.0 0.00 1.32 0.48 87 1012.4
20260507174544 61 1 5.0 9.0 0.00 1.32 0.48 85 1012.4
20260507173045 62 1 4.0 12.0 0.00 1.32 0.48 86 1012.2
20260507171551 64 1 0.0 7.0 0.00 1.32 0.48 85 1011.8
20260507170033 63 1 0.0 5.0 0.00 1.32 0.48 88 1011.8
20260507164541 63 1 2.0 6.0 0.00 1.37 0.48 88 1011.7
20260507163032 63 1 0.0 6.0 0.00 1.37 0.48 88 1011.6
20260507161540 63 1 2.0 4.0 0.00 1.37 0.48 86 1011.5
20260507160035 62 1 0.0 8.0 0.00 1.37 0.48 89 1011.5
20260507154533 61 1 0.0 5.0 0.00 2.31 0.48 92 1011.8
20260507153023 61 1 0.0 8.0 0.00 2.31 0.48 90 1012.0
20260507151536 61 1 1.0 5.0 0.00 2.31 0.48 90 1012.0
20260507150021 60 1 0.0 7.0 0.00 2.31 0.48 93 1012.0
20260507144520 59 1 3.0 7.0 0.00 2.36 0.48 91 1012.1
20260507143018 59 1 1.0 6.0 0.00 2.36 0.48 93 1011.9
20260507141518 59 1 2.0 6.0 0.00 2.36 0.48 94 1011.7
20260507140019 59 1 0.0 2.0 0.00 2.36 0.48 96 1011.7
20260507134528 59 1 0.0 0.0 0.02 2.38 0.48 96 1011.8
20260507133015 58 1 0.0 0.0 0.02 2.38 0.48 95 1011.7
20260507131519 57 1 1.0 6.0 0.02 2.38 0.48 95 1011.8
20260507130013 57 1 2.0 4.0 0.03 2.38 0.48 95 1012.5
20260507124511 58 1 0.0 3.0 0.02 2.39 0.46 95 1012.5
20260507123018 57 1 0.0 0.0 0.02 2.39 0.46 95 1011.3
20260507121511 57 1 0.0 0.0 0.02 2.39 0.46 95 1011.9
20260507120010 57 1 0.0 0.0 0.02 2.38 0.45 95 1011.5
20260507114518 57 1 0.0 3.0 0.03 2.37 0.44 95 1011.6
20260507113008 57 1 0.0 0.0 0.04 2.37 0.44 95 1011.4
20260507111516 57 1 0.0 0.0 0.07 2.37 0.44 95 1011.5
20260507110008 57 1 0.0 0.0 0.09 2.36 0.43 95 1012.6
20260507104507 57 1 0.0 0.0 0.07 2.34 0.41 95 1012.8
20260507103005 57 1 0.0 3.0 0.06 2.33 0.40 95 1012.4
20260507101515 57 1 0.0 4.0 0.03 2.29 0.37 95 1012.6
20260507100004 57 1 0.0 3.0 0.00 2.27 0.34 95 1011.8
20260507094504 57 1 0.0 0.0 0.00 2.27 0.34 95 1011.7
20260507093004 57 1 0.0 1.0 0.00 2.27 0.34 95 1012.0
20260507091502 57 1 0.0 0.0 0.00 2.27 0.34 95 1011.7
20260507090004 57 1 0.0 0.0 0.00 2.27 0.34 95 1011.7
20260507084606 57 1 0.0 0.0 0.00 2.27 0.34 95 1011.2
20260507083058 58 1 0.0 0.0 0.00 2.27 0.34 94 1011.5
20260507081556 58 1 0.0 4.0 0.00 2.27 0.34 95 1011.6
20260507080055 58 1 0.0 0.0 0.13 2.27 0.34 95 1012.2
20260507074555 58 1 0.0 0.0 0.13 2.27 0.34 95 1012.3
20260507073053 58 1 0.0 2.0 0.13 2.27 0.34 95 1012.3
20260507071556 58 1 0.0 9.0 0.13 2.27 0.34 95 1012.2
20260507070100 58 1 0.0 0.0 0.00 2.14 0.21 95 1011.4
20260507064548 58 1 0.0 3.0 0.00 2.14 0.21 95 1011.9
20260507063046 58 1 0.0 0.0 0.00 2.14 0.21 95 1012.3
20260507061546 58 1 0.0 1.0 0.01 2.14 0.21 95 1012.3
20260507060054 59 1 0.0 3.0 0.08 2.14 0.21 95 1012.9
20260507054546 59 1 0.0 2.0 0.14 2.14 0.21 95 1013.1
20260507053048 59 1 0.0 0.0 0.15 2.14 0.21 95 1013.7